This is the latest recevied weather packets stored in our database for station/object DG9BJA-13. If no packets are shown the sender has not sent any weather packets the latest 10 day(s).
| Time | Temp. | Humidity | Pressure | Rain* | Wind** | Luminosity | Snow |
|---|---|---|---|---|---|---|---|
| 1777730177 | 25.56° C | 44% | 1016.1 hPa | 0 mm | - | 510 W/m² | - |
| 1777729577 | 25.56° C | 43% | 1016.1 hPa | 0 mm | - | 536 W/m² | - |
| 1777728977 | 25.56° C | 43% | 1016.2 hPa | 0 mm | - | 626 W/m² | - |
| 1777728377 | 26.11° C | 42% | 1016.3 hPa | 0 mm | - | 570 W/m² | - |
| 1777727777 | 25.56° C | 42% | 1016.2 hPa | 0 mm | - | 705 W/m² | - |
| 1777727178 | 25.56° C | 40% | 1016.3 hPa | 0 mm | - | 441 W/m² | - |
| 1777726577 | 26.11° C | 40% | 1016.6 hPa | 0 mm | - | 751 W/m² | - |
| 1777725977 | 26.11° C | 40% | 1016.5 hPa | 0 mm | - | 724 W/m² | - |
| 1777725377 | 25.56° C | 39% | 1016.7 hPa | 0 mm | - | 599 W/m² | - |
| 1777724777 | 25.56° C | 40% | 1016.8 hPa | 0 mm | - | 810 W/m² | - |
| 1777724177 | 25.56° C | 38% | 1016.8 hPa | 0 mm | - | 740 W/m² | - |
| 1777723577 | 25.56° C | 38% | 1016.9 hPa | 0 mm | - | 777 W/m² | - |
| 1777722977 | 25.56° C | 37% | 1017.1 hPa | 0 mm | - | 788 W/m² | - |
| 1777722377 | 25.56° C | 37% | 1017.1 hPa | 0 mm | - | 851 W/m² | - |
| 1777721777 | 25.56° C | 35% | 1017.3 hPa | 0 mm | - | 759 W/m² | - |
| 1777721177 | 25.56° C | 37% | 1017.3 hPa | 0 mm | - | 854 W/m² | - |
| 1777720577 | 25° C | 37% | 1017.3 hPa | 0 mm | - | 487 W/m² | - |
| 1777719977 | 25° C | 36% | 1017.5 hPa | 0 mm | - | 775 W/m² | - |
| 1777719376 | 25° C | 35% | 1017.6 hPa | 0 mm | - | 684 W/m² | - |
| 1777718777 | 25° C | 34% | 1017.6 hPa | 0 mm | - | 504 W/m² | - |
| 1777718177 | 24.44° C | 34% | 1017.7 hPa | 0 mm | - | 793 W/m² | - |
| 1777717577 | 24.44° C | 33% | 1017.8 hPa | 0 mm | - | 601 W/m² | - |
| 1777716977 | 24.44° C | 30% | 1017.8 hPa | 0 mm | - | 635 W/m² | - |
| 1777716376 | 23.89° C | 32% | 1017.9 hPa | 0 mm | - | 624 W/m² | - |
| 1777715776 | 23.89° C | 33% | 1018.2 hPa | 0 mm | - | 729 W/m² | - |
* Rain latest hour (hover to see other rain measurements)
** Current wind speed in m/s (hover to see current wind gust speed)